Location: ???????????
(44.4062°N, 135.3991°E)
Time: 01:29:22
(UTC+00:00)

Cosmos 1125 Rocket - Pass Details

Date: 19 May 2025
Orbit: 753 x 776 km, 74.0° (Epoch: 16 June)

Event Time Altitude Azimuth Distance (km) Brightness Sun altitude
Rises 12:43:00 0° 334° (NNW) 3,266 8.4 -19.0°
Reaches altitude 10° 12:45:26 10° 330° (NNW) 2,334 7.3 -19.2°
Maximum altitude 12:50:33 51° 255° (WSW) 967 4.1 -19.7°
Enters shadow 12:53:00 29° 195° (SSW) 1,400 4.5 -19.9°
